EHI
15 14 12 13 15 16 16 16 15 13 11 8 6 6 6 7 7 6 5 4 4 5 5 4 3 2 1 0 0 0 0 1 2 1 0 0 1 2 3 3 2 3 4
11 10 8 9 10 11 12 12 11 10 8 6 5 4 4 4 5 4 4 4 4 4 4 3 2 1 0 0 0 0 0 0 1 0 0 0 0 1 2 2 1 2 3
5 5 3 3 5 5 5 5 6 5 5 4 3 2 1 2 3 3 3 3 3 3 2 2 1 0 0 0 0 0 0 0 0 0 0 0 0 0 1 1 0 1 2
4 3 1 0 1 2 2 2 2 2 2 2 1 0 0 1 1 2 1 1 1 1 1 1 0 0 0 0 0 0 0 0 0 0 0 0 0 0 0 0 0 0 1
3 2 1 0 1 2 1 1 1 0 0 0 0 0 0 0 0 0 0 0 0 0 0 0 0 0 0 0 0 0 0 0 0 0 0 0 0 0 0 0 0 0 0
2 1 0 0 1 2 2 2 2 1 0 0 0 0 0 0 0 0 0 0 0 0 0 0 0 0 0 0 0 0 0 0 0 0 0 0 0 0 0 0 0 0 0
1 0 0 0 1 1 2 2 2 1 0 0 0 0 0 0 0 0 0 0 0 0 0 0 0 0 0 0 0 0 0 0 0 0 0 0 0 0 0 0 0 0 0
1 0 0 0 0 0 1 1 1 0 0 0 0 0 0 0 0 0 0 0 0 0 0 0 0 0 0 0 0 0 0 0 0 0 0 0 0 0 0 0 0 0 0
0 0 0 0 0 0 0 0 0 0 0 0 0 0 0 0 0 0 0 0 0 0 0 0 0 0 0 0 0 0 0 0 0 0 0 0 0 0 0 0 0 0 0
0 0 0 0 0 0 0 0 0 0 0 0 0 0 0 0 0 0 0 0 0 0 0 0 0 0 0 0 0 0 0 0 0 0 0 0 0 0 0 0 0 0 0
0 0 0 0 0 0 0 0 0 0 0 0 0 0 0 0 0 0 0 0 0 0 0 0 0 0 0 0 0 0 0 0 0 0 0 0 0 0 0 0 0 0 0
0 0 0 0 0 0 0 0 0 0 0 0 0 0 0 0 0 0 0 0 0 0 0 0 0 0 0 0 0 0 0 0 0 0 0 0 0 0 0 0 0 0 0
0 0 0 0 0 0 0 0 0 0 0 0 0 0 0 0 0 0 0 0 0 0 0 0 0 0 0 0 0 0 0 0 0 0 0 0 0 0 0 0 0 0 0
0 0 0 0 0 0 0 0 0 0 0 0 0 0 0 0 0 0 0 0 0 0 0 0 0 0 0 0 0 0 0 0 0 0 0 0 0 0 0 0 0 0 0
0 0 0 0 0 0 0 0 0 0 0 0 0 0 0 0 0 0 0 0 0 0 0 0 0 0 0 0 0 0 0 0 0 0 0 0 0 0 0 0 0 0 0
0 0 0 0 0 0 0 0 0 0 0 0 0 0 0 0 0 0 0 0 0 0 0 0 0 0 0 0 0 0 0 0 0 0 0 0 0 0 0 0 0 0 0
0 0 0 0 0 0 0 0 0 0 0 0 0 0 0 0 0 0 0 0 0 0 0 0 0 0 0 0 0 0 0 0 0 0 0 0 0 0 0 0 0 0 0
0 0 0 0 0 0 0 0 0 0 0 0 0 0 0 0 0 0 0 0 0 0 0 0 0 0 0 0 0 0 0 0 0 0 0 0 0 0 0 0 0 0 0
0 0 0 0 0 0 0 0 0 0 0 0 0 0 0 0 0 0 0 0 0 0 0 0 0 0 0 0 0 0 0 0 0 0 0 0 0 0 0 0 0 0 0
0 0 0 0 0 0 0 0 0 0 0 0 0 0 0 0 0 0 0 0 0 0 0 0 0 0 0 0 0 0 0 0 0 0 0 0 0 0 0 0 0 0 0
0 0 0 0 0 0 0 0 0 0 0 0 0 0 0 0 0 0 0 0 0 0 0 0 0 0 0 0 0 0 0 0 0 0 0 0 0 0 0 0 0 0 0
0 0 0 0 0 0 0 0 0 0 0 0 0 0 0 0 0 0 0 0 0 0 0 0 0 0 0 0 0 0 0 0 0 0 0 0 0 0 0 0 0 0 0
0 0 0 0 0 0 0 0 0 0 0 0 0 0 0 0 0 0 0 0 0 0 0 0 0 0 0 0 0 0 0 0 0 0 0 0 0 0 0 0 0 0 0
0 0 0 0 0 0 0 0 0 0 0 0 0 0 0 0 0 0 0 0 0 0 0 0 0 0 0 0 0 0 0 0 0 0 0 0 0 0 0 0 0 0 0
0 0 0 0 0 0 0 0 0 0 0 0 0 0 0 0 0 0 0 0 0 0 0 0 0 0 0 0 0 0 0 0 0 0 0 0 0 0 0 0 0 0 0
0 0 0 0 0 0 0 0 0 0 0 0 0 0 0 0 0 0 0 0 0 0 0 0 0 0 0 0 0 0 0 0 0 0 0 0 0 0 0 0 0 0 0
Wind_Speed
4 5 4 5 5 5 5 4 4 4 3 2 2 2 1 1 1 1 1 1 1 1 1 1 2 2 2 3 3 3 4 4 3 2 3 4 5 6 6 6 6 7 9
3 3 2 3 3 3 3 3 3 2 2 1 1 0 1 1 1 1 1 1 1 1 1 1 2 2 2 3 3 3 2 3 3 3 2 2 3 4 7 6 7 7 7
4 3 2 2 3 3 3 3 2 2 2 2 1 2 2 2 2 2 2 2 2 2 2 2 2 2 2 2 2 2 3 3 2 3 3 3 4 3 3 5 6 7 6
3 3 3 3 3 4 3 3 3 2 1 2 2 1 1 1 2 2 2 3 3 2 2 3 3 3 2 2 3 2 2 2 2 2 3 4 3 2 2 2 3 6 7
4 4 4 4 3 2 2 2 2 2 1 2 2 1 1 2 2 2 3 3 4 4 3 3 3 3 3 3 3 2 2 2 2 2 2 3 3 3 3 3 2 1 3
3 3 2 1 1 1 1 1 1 1 1 1 1 1 3 3 3 4 3 3 3 3 3 3 3 4 3 4 4 3 3 3 2 2 2 2 2 3 3 3 3 2 3
2 1 1 1 0 0 1 0 0 1 2 1 2 2 3 3 4 4 4 4 3 3 4 3 3 3 4 4 4 3 3 3 3 3 2 2 3 2 3 3 2 2 2
2 1 1 2 1 1 1 1 1 1 2 2 3 2 2 2 3 4 4 4 3 4 4 4 4 5 5 5 4 3 4 3 4 4 3 2 3 2 2 3 2 2 1
2 2 2 2 2 2 1 1 1 2 3 3 3 3 3 3 4 4 4 3 3 4 4 4 4 5 5 5 5 4 5 4 4 4 3 3 3 2 2 2 3 3 3
2 3 3 3 2 2 1 2 2 1 2 3 3 3 4 4 4 4 4 4 4 4 4 4 5 5 5 6 5 4 5 5 5 4 4 3 3 2 2 2 2 3 3
3 2 2 1 1 2 2 2 3 3 3 3 3 4 4 4 4 4 5 5 5 5 5 5 5 6 6 6 6 6 6 7 6 5 5 5 4 3 3 2 2 2 2
2 2 1 1 2 3 3 3 3 3 3 3 3 4 5 5 5 5 6 6 6 6 6 6 6 6 6 6 7 8 8 7 8 7 6 6 4 4 3 3 3 2 2
2 1 1 2 2 2 3 3 4 4 4 4 4 5 6 5 6 6 6 6 6 6 6 6 6 6 6 7 7 8 8 8 8 8 7 7 5 5 4 4 3 3 2
1 1 1 2 3 3 3 4 4 4 5 5 5 6 6 6 6 6 6 7 6 6 6 6 6 7 7 7 7 8 8 8 8 7 7 7 7 7 6 5 4 3 2
1 1 1 2 3 3 4 4 5 5 5 5 6 6 6 6 6 6 7 7 7 8 6 6 7 7 6 7 7 7 8 7 7 7 7 8 10 11 8 6 5 5 3
1 2 2 3 3 4 4 4 5 5 5 5 6 7 6 6 7 7 7 7 7 7 7 7 7 7 8 9 9 7 6 6 7 7 7 7 9 11 12 11 10 9 6
1 2 3 3 4 4 4 5 5 5 5 6 7 7 7 7 7 8 7 7 7 7 7 8 7 8 9 12 12 11 7 6 6 7 7 7 8 9 7 9 10 9 10
1 2 3 4 4 4 4 5 5 6 6 6 7 7 7 8 8 7 8 8 7 7 7 8 8 8 9 12 12 12 8 6 7 8 8 8 6 7 7 7 6 6 6
1 2 3 3 3 4 5 5 6 6 6 7 7 8 8 8 8 8 9 8 7 7 7 7 8 8 9 11 12 10 5 5 7 8 8 8 8 10 11 7 7 6 4
1 2 3 3 4 5 5 5 6 6 7 8 8 8 8 8 9 9 9 7 6 7 7 7 7 7 8 10 11 10 4 5 5 6 7 10 10 11 12 8 7 7 6
1 2 3 3 4 5 4 5 6 7 8 8 8 8 8 8 8 7 7 7 7 7 6 7 7 6 7 8 9 9 5 6 5 5 5 6 11 12 13 11 8 10 8
2 2 3 4 5 4 4 6 7 7 7 8 8 9 8 8 8 7 8 7 6 6 6 6 6 5 5 5 6 7 8 7 5 5 4 5 10 12 12 10 9 12 9
2 2 3 4 5 5 4 5 7 7 8 8 9 9 9 8 7 7 7 7 5 5 5 5 5 5 4 4 5 5 6 7 4 4 6 7 8 9 8 10 11 9 6
3 2 3 4 5 5 5 5 7 7 7 8 9 8 8 8 8 6 5 5 5 5 5 4 5 4 3 3 2 1 2 3 3 2 3 5 6 5 5 5 6 5 6
2 2 2 4 5 5 6 6 6 6 7 8 8 8 7 7 7 7 5 6 5 5 5 4 4 4 3 4 3 2 2 3 3 3 2 2 2 2 2 2 3 4 4
2 2 3 4 5 5 6 6 6 6 7 7 7 6 6 6 6 6 7 8 7 8 7 7 5 4 4 4 3 3 3 4 6 4 3 3 3 4 4 4 4 4 5
Wind_Direction
82 78 83 89 84 74 72 69 69 55 54 40 25 19 356 339 343 310 237 207 213 227 218 243 251 236 230 245 248 244 239 234 214 224 265 260 242 236 230 218 210 215 217
102 100 104 99 98 101 97 91 86 77 77 82 76 214 258 295 295 316 316 272 243 238 214 218 238 242 245 261 260 238 231 237 200 186 216 278 285 252 235 216 213 216 213
159 161 162 162 152 157 160 147 148 134 115 91 61 19 19 14 1 345 324 299 272 244 223 218 218 229 220 239 250 239 228 238 231 199 189 198 235 270 266 230 220 208 207
189 184 191 199 199 203 186 170 172 162 153 125 100 103 94 298 271 277 286 299 294 274 254 236 222 215 213 224 237 225 219 217 237 240 224 218 206 211 278 287 234 211 206
213 202 204 208 204 193 175 172 161 175 196 172 161 154 215 237 259 282 297 298 298 289 275 246 227 220 218 222 224 217 214 207 218 233 236 238 233 219 213 257 278 253 220
209 204 208 173 164 154 141 147 138 250 270 245 218 214 246 260 279 287 288 289 287 285 277 260 236 227 222 222 219 213 214 219 221 230 233 231 232 218 202 219 234 236 243
187 161 126 111 130 40 348 21 61 304 302 300 288 273 265 258 256 262 262 268 274 272 266 260 243 235 228 226 219 214 223 226 229 229 233 238 243 227 198 200 214 227 253
131 117 119 122 101 70 58 71 53 303 308 303 289 289 279 259 259 259 257 258 253 252 254 252 246 241 235 230 220 219 223 222 231 236 226 233 242 236 209 193 185 206 255
132 119 100 99 95 75 61 69 48 330 311 302 295 293 291 280 274 272 265 266 264 268 269 260 255 250 240 230 218 220 224 216 223 228 223 221 230 233 230 211 193 181 200
104 106 101 93 81 77 54 43 37 334 317 323 314 318 297 288 282 280 280 276 271 270 276 269 263 257 248 236 223 225 227 219 222 217 217 223 223 223 220 215 213 193 186
130 110 96 70 51 33 23 11 357 347 336 327 318 322 312 304 297 287 280 274 269 269 266 261 259 255 250 243 229 227 223 220 223 222 215 222 217 207 213 204 203 207 189
120 120 93 38 21 6 354 345 333 328 313 308 313 310 306 307 304 293 286 281 276 271 264 261 257 254 252 242 231 233 230 219 220 219 214 222 218 210 209 194 195 203 197
102 57 19 358 334 323 319 317 315 307 304 308 312 309 305 301 295 289 288 285 278 273 270 265 260 257 252 244 236 230 227 222 220 216 209 213 211 211 207 196 191 193 198
106 66 338 310 304 303 304 305 304 300 306 308 305 301 295 290 287 286 288 287 281 276 271 264 261 259 254 247 241 234 228 223 221 219 214 207 204 208 202 194 187 180 175
54 15 310 299 300 301 300 300 299 300 304 305 300 292 289 289 290 289 288 287 284 285 273 269 266 262 258 252 244 233 232 222 218 218 220 217 210 207 200 193 181 173 172
328 321 320 315 305 297 295 300 300 299 301 302 297 293 294 294 292 290 287 286 284 280 276 272 266 262 266 266 257 240 231 221 214 214 219 223 219 214 208 201 185 175 175
287 313 306 293 292 292 292 297 296 302 308 304 302 300 298 295 292 295 296 288 284 277 276 271 264 259 259 258 256 247 227 216 216 214 214 222 218 201 201 205 195 190 188
284 300 293 293 292 293 297 299 305 311 310 307 305 305 303 298 295 294 291 287 282 278 274 272 266 262 263 258 254 248 229 219 219 214 208 206 207 201 189 194 193 193 196
231 256 270 279 296 302 301 311 313 314 312 308 306 305 304 302 301 299 294 289 285 283 277 272 268 264 266 261 253 240 221 220 225 221 213 203 200 205 192 184 188 193 206
257 284 300 312 314 305 310 319 312 312 309 306 304 303 301 301 300 297 293 288 284 281 283 281 275 267 266 265 255 236 216 216 219 220 218 211 201 201 195 190 186 190 198
301 319 329 319 303 305 318 318 311 305 300 303 305 304 303 300 296 294 291 291 291 291 290 288 285 277 269 268 257 238 215 210 207 207 208 211 203 198 199 193 192 196 185
319 325 327 315 305 309 319 316 309 301 304 309 310 309 307 305 310 304 300 297 296 295 295 294 296 289 282 272 264 241 222 205 196 202 200 203 198 195 196 195 204 195 177
304 305 311 313 311 310 313 311 304 308 314 316 314 311 310 308 304 302 302 303 301 295 295 296 297 297 296 290 279 254 229 210 194 199 191 188 192 187 191 202 200 185 170
291 299 316 320 314 311 313 303 303 312 317 316 313 312 313 311 310 305 300 298 299 300 298 297 297 299 301 301 298 274 227 211 200 188 181 177 174 164 172 183 191 180 178
275 289 303 303 302 308 315 312 312 318 319 315 312 312 309 307 308 306 296 292 282 277 278 281 279 287 292 282 266 232 206 192 190 159 128 121 136 157 161 164 171 176 174
266 290 303 303 302 313 315 312 314 317 318 317 315 309 308 307 307 308 311 302 291 294 285 269 264 266 262 277 277 255 226 200 175 154 159 173 177 183 185 184 184 183 187